• en France
  • Liste des pays
  • À 7 jours
  • Température de l'eau
  • Carte satellitaire
  • Carte météo
  • Widgets météo
  • user-avatar
    Se connecter

    Météo par heure à Malinovka

    Ce jour, 22 Août, Mercredi

    Heure Température Précipitation Vent Pression Humidité
    00:00 +17°C° 0 mm 3 m/s 741 mmHg 91%
    01:00 +17°C° 0 mm 3 m/s 741 mmHg 92%
    02:00 +16°C° 0 mm 2 m/s 741 mmHg 94%
    03:00 +14°C° 0 mm 3 m/s 741 mmHg 94%
    04:00 +14°C° 0 mm 3 m/s 742 mmHg 93%
    05:00 +14°C° 0 mm 3 m/s 742 mmHg 93%
    06:00 +15°C° 0 mm 4 m/s 743 mmHg 85%
    07:00 +17°C° 0 mm 4 m/s 743 mmHg 77%
    08:00 +17°C° 0 mm 5 m/s 743 mmHg 69%
    09:00 +19°C° 0 mm 5 m/s 744 mmHg 62%
    10:00 +20°C° 0 mm 5 m/s 744 mmHg 54%
    11:00 +21°C° 0 mm 6 m/s 745 mmHg 47%
    12:00 +21°C° 0 mm 6 m/s 745 mmHg 45%
    13:00 +21°C° 0 mm 5 m/s 745 mmHg 44%
    14:00 +21°C° 0 mm 5 m/s 745 mmHg 42%
    15:00 +21°C° 0 mm 5 m/s 745 mmHg 45%
    16:00 +21°C° 0 mm 4 m/s 746 mmHg 48%
    17:00 +20°C° 0 mm 3 m/s 746 mmHg 50%
    18:00 +18°C° 0 mm 3 m/s 746 mmHg 54%
    19:00 +17°C° 0 mm 3 m/s 746 mmHg 58%
    20:00 +15°C° 0 mm 2 m/s 747 mmHg 62%
    21:00 +15°C° 0 mm 2 m/s 747 mmHg 64%
    22:00 +14°C° 0 mm 2 m/s 747 mmHg 66%
    23:00 +14°C° 0 mm 2 m/s 748 mmHg 68%

    Demain, 23 Août, Jeudi

    Heure Température Précipitation Vent Pression Humidité
    00:00 +13°C° 0 mm 2 m/s 748 mmHg 70%
    01:00 +13°C° 0 mm 2 m/s 748 mmHg 72%
    02:00 +12°C° 0 mm 2 m/s 748 mmHg 74%
    03:00 +12°C° 0 mm 2 m/s 749 mmHg 76%
    04:00 +12°C° 0 mm 2 m/s 749 mmHg 77%
    05:00 +11°C° 0 mm 1 m/s 749 mmHg 79%
    06:00 +13°C° 0 mm 2 m/s 749 mmHg 72%
    07:00 +15°C° 0 mm 2 m/s 749 mmHg 65%
    08:00 +17°C° 0 mm 2 m/s 750 mmHg 59%
    09:00 +18°C° 0 mm 2 m/s 750 mmHg 54%
    10:00 +19°C° 0 mm 2 m/s 750 mmHg 49%
    11:00 +20°C° 0 mm 2 m/s 750 mmHg 44%
    12:00 +20°C° 0 mm 2 m/s 749 mmHg 42%
    13:00 +21°C° 0 mm 2 m/s 749 mmHg 40%
    14:00 +21°C° 0 mm 2 m/s 749 mmHg 39%
    15:00 +22°C° 0 mm 1 m/s 749 mmHg 41%
    16:00 +22°C° 0 mm 1 m/s 749 mmHg 43%
    17:00 +22°C° 0 mm 1 m/s 749 mmHg 46%
    18:00 +20°C° 0 mm 1 m/s 749 mmHg 49%
    19:00 +18°C° 0 mm 1 m/s 749 mmHg 52%
    20:00 +15°C° 0 mm 1 m/s 749 mmHg 56%
    21:00 +15°C° 0 mm 1 m/s 749 mmHg 57%
    22:00 +15°C° 0 mm 1 m/s 749 mmHg 59%
    23:00 +14°C° 0 mm 1 m/s 749 mmHg 60%

    Après-demain, 24 Août, Vendredi

    Heure Température Précipitation Vent Pression Humidité
    00:00 +14°C° 0 mm 1 m/s 749 mmHg 61%
    01:00 +13°C° 0 mm 1 m/s 749 mmHg 62%
    02:00 +13°C° 0 mm 1 m/s 749 mmHg 64%
    03:00 +13°C° 0 mm 1 m/s 749 mmHg 65%
    04:00 +13°C° 0 mm 1 m/s 749 mmHg 66%
    05:00 +12°C° 0 mm 1 m/s 749 mmHg 67%
    06:00 +14°C° 0 mm 1 m/s 749 mmHg 62%
    07:00 +16°C° 0 mm 1 m/s 749 mmHg 57%
    08:00 +19°C° 0 mm 1 m/s 749 mmHg 52%
    09:00 +21°C° 0 mm 1 m/s 748 mmHg 48%
    10:00 +21°C° 0 mm 2 m/s 748 mmHg 44%
    11:00 +23°C° 0 mm 2 m/s 748 mmHg 40%
    12:00 +24°C° 0 mm 1 m/s 748 mmHg 38%
    13:00 +24°C° 0 mm 1 m/s 748 mmHg 37%
    14:00 +25°C° 0 mm 1 m/s 747 mmHg 35%
    15:00 +25°C° 0 mm 1 m/s 747 mmHg 38%
    16:00 +24°C° 0 mm 1 m/s 747 mmHg 41%
    17:00 +24°C° 0 mm 1 m/s 746 mmHg 44%
    18:00 +22°C° 0 mm 1 m/s 746 mmHg 46%
    19:00 +20°C° 0 mm 1 m/s 746 mmHg 48%
    20:00 +17°C° 0 mm 2 m/s 746 mmHg 51%
    21:00 +17°C° 0 mm 2 m/s 746 mmHg 52%
    22:00 +16°C° 0 mm 2 m/s 746 mmHg 53%
    23:00 +16°C° 0 mm 2 m/s 746 mmHg 55%

    25 Août, Samedi

    Heure Température Précipitation Vent Pression Humidité
    00:00 +15°C° 0 mm 2 m/s 746 mmHg 56%
    01:00 +15°C° 0 mm 2 m/s 746 mmHg 57%
    02:00 +15°C° 0 mm 2 m/s 746 mmHg 58%
    03:00 +14°C° 0 mm 2 m/s 745 mmHg 59%
    04:00 +14°C° 0 mm 2 m/s 745 mmHg 60%
    05:00 +14°C° 0 mm 2 m/s 745 mmHg 62%
    06:00 +16°C° 0 mm 2 m/s 745 mmHg 58%
    07:00 +18°C° 0 mm 2 m/s 745 mmHg 54%
    08:00 +20°C° 0 mm 2 m/s 746 mmHg 50%
    09:00 +23°C° 0 mm 2 m/s 745 mmHg 46%
    10:00 +24°C° 0 mm 3 m/s 745 mmHg 42%
    11:00 +26°C° 0 mm 3 m/s 745 mmHg 37%
    12:00 +26°C° 0 mm 3 m/s 745 mmHg 36%
    13:00 +27°C° 0 mm 3 m/s 745 mmHg 35%
    14:00 +27°C° 0 mm 2 m/s 744 mmHg 33%
    15:00 +27°C° 0 mm 2 m/s 744 mmHg 37%
    16:00 +26°C° 0 mm 2 m/s 744 mmHg 40%
    17:00 +26°C° 0 mm 2 m/s 744 mmHg 43%
    18:00 +24°C° 0 mm 2 m/s 744 mmHg 45%
    19:00 +21°C° 0 mm 2 m/s 744 mmHg 48%
    20:00 +19°C° 0 mm 2 m/s 744 mmHg 50%
    21:00 +19°C° 0 mm 2 m/s 744 mmHg 51%
    22:00 +18°C° 0 mm 2 m/s 744 mmHg 52%
    23:00 +17°C° 0 mm 2 m/s 744 mmHg 54%

    26 Août, Dimanche

    Heure Température Précipitation Vent Pression Humidité
    00:00 +17°C° 0 mm 2 m/s 744 mmHg 55%
    01:00 +16°C° 0 mm 2 m/s 744 mmHg 56%
    02:00 +16°C° 0 mm 2 m/s 744 mmHg 57%
    03:00 +16°C° 0 mm 2 m/s 744 mmHg 58%
    04:00 +15°C° 0 mm 2 m/s 744 mmHg 59%
    05:00 +15°C° 0 mm 2 m/s 744 mmHg 61%
    06:00 +17°C° 0 mm 3 m/s 744 mmHg 57%
    07:00 +19°C° 0 mm 3 m/s 744 mmHg 54%
    08:00 +21°C° 0 mm 3 m/s 744 mmHg 51%
    09:00 +22°C° 0 mm 3 m/s 744 mmHg 47%
    10:00 +25°C° 0 mm 4 m/s 744 mmHg 42%
    11:00 +27°C° 0 mm 4 m/s 744 mmHg 38%
    12:00 +27°C° 0 mm 4 m/s 744 mmHg 36%
    13:00 +28°C° 0 mm 3 m/s 744 mmHg 34%
    14:00 +28°C° 0 mm 3 m/s 744 mmHg 32%
    15:00 +27°C° 0 mm 3 m/s 743 mmHg 36%
    16:00 +27°C° 0 mm 2 m/s 743 mmHg 40%
    17:00 +26°C° 0 mm 2 m/s 743 mmHg 44%
    18:00 +24°C° 0 mm 2 m/s 743 mmHg 46%
    19:00 +23°C° 0 mm 2 m/s 743 mmHg 49%
    20:00 +20°C° 0 mm 2 m/s 743 mmHg 51%
    21:00 +19°C° 0 mm 2 m/s 743 mmHg 52%
    22:00 +19°C° 0 mm 2 m/s 743 mmHg 54%
    23:00 +18°C° 0 mm 2 m/s 743 mmHg 55%

    27 Août, Lundi

    Heure Température Précipitation Vent Pression Humidité
    00:00 +18°C° 0 mm 2 m/s 743 mmHg 57%
    01:00 +17°C° 0 mm 2 m/s 743 mmHg 59%
    02:00 +17°C° 0 mm 2 m/s 743 mmHg 61%
    03:00 +17°C° 0 mm 2 m/s 743 mmHg 64%
    04:00 +16°C° 0 mm 2 m/s 744 mmHg 66%
    05:00 +16°C° 0 mm 2 m/s 744 mmHg 69%
    06:00 +18°C° 0 mm 3 m/s 744 mmHg 65%
    07:00 +20°C° 0 mm 3 m/s 744 mmHg 61%
    08:00 +22°C° 0 mm 3 m/s 744 mmHg 58%
    09:00 +25°C° 0 mm 3 m/s 745 mmHg 52%
    10:00 +26°C° 0 mm 3 m/s 745 mmHg 47%
    11:00 +28°C° 0 mm 4 m/s 745 mmHg 42%
    12:00 +28°C° 0 mm 3 m/s 745 mmHg 39%
    13:00 +29°C° 0 mm 3 m/s 745 mmHg 37%
    14:00 +29°C° 0 mm 3 m/s 745 mmHg 35%
    15:00 +29°C° 0 mm 3 m/s 745 mmHg 38%
    16:00 +28°C° 0 mm 2 m/s 745 mmHg 42%
    17:00 +27°C° 0 mm 2 m/s 744 mmHg 45%
    18:00 +26°C° 0 mm 2 m/s 745 mmHg 49%
    19:00 +24°C° 0 mm 2 m/s 745 mmHg 52%
    20:00 +21°C° 0 mm 2 m/s 745 mmHg 55%
    21:00 +20°C° 0 mm 2 m/s 745 mmHg 56%
    22:00 +20°C° 0 mm 2 m/s 745 mmHg 58%
    23:00 +19°C° 0 mm 2 m/s 745 mmHg 59%
    Voir plus